contact:dominique.lefevre@mio.osupytheas.fr, maurice.libes@osupytheas.fr, didier.mallarino@osupytheas.fr
Project:EMSO http://www.emso-fr.org/EMSO-France
Depth: 2436.0 m
Title:EMSO Ligure Ouest : Data MII capteur MICROCAT
DateTime_Computer,Latitude,Longitude,Temperature,Conductivity,Pressure,DateTime_Instrument
DateTime_Computer,Latitude,Longitude,degC,S m-1,dbar,DateTime_Instrument
2022-12-25T00:03:01Z,42.805,6.029,13.3011,4.60062,2470.577,2022-12-25T02:09:00Z
2022-12-25T00:06:04Z,42.805,6.029,13.3009,4.60062,2470.577,2022-12-25T02:12:03Z
2022-12-25T00:09:07Z,42.805,6.029,13.3010,4.60062,2470.553,2022-12-25T02:15:06Z
2022-12-25T00:12:11Z,42.805,6.029,13.3015,4.60062,2470.553,2022-12-25T02:18:09Z
2022-12-25T00:15:14Z,42.805,6.029,13.3018,4.60062,2470.567,2022-12-25T02:21:12Z
2022-12-25T00:18:17Z,42.805,6.029,13.3010,4.60062,2470.577,2022-12-25T02:24:15Z
2022-12-25T00:21:20Z,42.805,6.029,13.3015,4.60063,2470.577,2022-12-25T02:27:19Z
2022-12-25T00:24:23Z,42.805,6.029,13.3016,4.60063,2470.567,2022-12-25T02:30:22Z
2022-12-25T00:27:26Z,42.805,6.029,13.3014,4.60063,2470.53,2022-12-25T02:33:25Z
2022-12-25T00:30:29Z,42.805,6.029,13.3011,4.60064,2470.591,2022-12-25T02:36:28Z
2022-12-25T00:33:32Z,42.805,6.029,13.3014,4.60064,2470.577,2022-12-25T02:39:31Z
2022-12-25T00:36:35Z,42.805,6.029,13.3009,4.60065,2470.53,2022-12-25T02:42:34Z
2022-12-25T00:39:38Z,42.805,6.029,13.3009,4.60063,2470.567,2022-12-25T02:45:37Z
2022-12-25T00:42:41Z,42.805,6.029,13.3015,4.60064,2470.586,2022-12-25T02:48:40Z
2022-12-25T00:45:44Z,42.805,6.029,13.3013,4.60062,2470.567,2022-12-25T02:51:43Z
2022-12-25T00:48:48Z,42.805,6.029,13.3018,4.60062,2470.53,2022-12-25T02:54:46Z
2022-12-25T00:51:51Z,42.805,6.029,13.3014,4.60064,2470.553,2022-12-25T02:57:49Z
2022-12-25T00:54:54Z,42.805,6.029,13.3014,4.60062,2470.553,2022-12-25T03:00:53Z
2022-12-25T00:57:57Z,42.805,6.029,13.3014,4.60064,2470.553,2022-12-25T03:03:56Z
2022-12-25T01:01:00Z,42.805,6.029,13.3011,4.60066,2470.553,2022-12-25T03:06:59Z
2022-12-25T01:04:03Z,42.805,6.029,13.3013,4.60062,2470.553,2022-12-25T03:10:02Z
2022-12-25T01:07:06Z,42.805,6.029,13.3013,4.60064,2470.53,2022-12-25T03:13:05Z
2022-12-25T01:10:09Z,42.805,6.029,13.3014,4.60063,2470.507,2022-12-25T03:16:08Z
2022-12-25T01:13:12Z,42.805,6.029,13.3014,4.60064,2470.53,2022-12-25T03:19:11Z
2022-12-25T01:16:15Z,42.805,6.029,13.3014,4.60066,2470.53,2022-12-25T03:22:14Z
2022-12-25T01:19:18Z,42.805,6.029,13.3011,4.60068,2470.553,2022-12-25T03:25:17Z
2022-12-25T01:22:22Z,42.805,6.029,13.3012,4.60063,2470.553,2022-12-25T03:28:20Z
2022-12-25T01:25:25Z,42.805,6.029,13.3012,4.60062,2470.544,2022-12-25T03:31:23Z
2022-12-25T01:28:28Z,42.805,6.029,13.3015,4.60063,2470.53,2022-12-25T03:34:27Z
2022-12-25T01:31:31Z,42.805,6.029,13.3019,4.60064,2470.544,2022-12-25T03:37:30Z
2022-12-25T01:34:34Z,42.805,6.029,13.3011,4.60064,2470.52,2022-12-25T03:40:33Z
2022-12-25T01:37:37Z,42.805,6.029,13.3012,4.60066,2470.553,2022-12-25T03:43:36Z
2022-12-25T01:40:40Z,42.805,6.029,13.3016,4.60064,2470.553,2022-12-25T03:46:39Z
2022-12-25T01:43:43Z,42.805,6.029,13.3016,4.60063,2470.544,2022-12-25T03:49:42Z
2022-12-25T01:46:46Z,42.805,6.029,13.3012,4.60062,2470.567,2022-12-25T03:52:45Z
2022-12-25T01:49:49Z,42.805,6.029,13.3016,4.60061,2470.553,2022-12-25T03:55:48Z
2022-12-25T01:52:52Z,42.805,6.029,13.3015,4.60062,2470.567,2022-12-25T03:58:51Z
2022-12-25T01:55:55Z,42.805,6.029,13.3012,4.60063,2470.507,2022-12-25T04:01:54Z
2022-12-25T01:58:59Z,42.805,6.029,13.3015,4.60062,2470.53,2022-12-25T04:04:57Z
2022-12-25T02:02:02Z,42.805,6.029,13.3011,4.60064,2470.553,2022-12-25T04:08:00Z
2022-12-25T02:05:05Z,42.805,6.029,13.3012,4.60063,2470.567,2022-12-25T04:11:04Z
2022-12-25T02:08:08Z,42.805,6.029,13.3013,4.60063,2470.553,2022-12-25T04:14:07Z
2022-12-25T02:11:11Z,42.805,6.029,13.3014,4.60062,2470.544,2022-12-25T04:17:10Z
2022-12-25T02:14:14Z,42.805,6.029,13.3011,4.60062,2470.553,2022-12-25T04:20:13Z
2022-12-25T02:17:17Z,42.805,6.029,13.3014,4.60066,2470.553,2022-12-25T04:23:16Z
2022-12-25T02:20:20Z,42.805,6.029,13.3009,4.60062,2470.553,2022-12-25T04:26:19Z
2022-12-25T02:23:23Z,42.805,6.029,13.3011,4.60064,2470.507,2022-12-25T04:29:22Z
2022-12-25T02:26:26Z,42.805,6.029,13.3010,4.60063,2470.553,2022-12-25T04:32:25Z
2022-12-25T02:29:29Z,42.805,6.029,13.3010,4.60063,2470.53,2022-12-25T04:35:28Z
2022-12-25T02:32:32Z,42.805,6.029,13.3015,4.60064,2470.53,2022-12-25T04:38:31Z
2022-12-25T02:35:36Z,42.805,6.029,13.3014,4.60063,2470.53,2022-12-25T04:41:34Z
2022-12-25T02:38:39Z,42.805,6.029,13.3014,4.60063,2470.507,2022-12-25T04:44:38Z
2022-12-25T02:41:42Z,42.805,6.029,13.3011,4.60063,2470.507,2022-12-25T04:47:41Z
2022-12-25T02:44:45Z,42.805,6.029,13.3013,4.60064,2470.507,2022-12-25T04:50:44Z
2022-12-25T02:47:48Z,42.805,6.029,13.3013,4.60062,2470.53,2022-12-25T04:53:47Z
2022-12-25T02:50:51Z,42.805,6.029,13.3013,4.60062,2470.553,2022-12-25T04:56:50Z
2022-12-25T02:53:54Z,42.805,6.029,13.3013,4.60062,2470.53,2022-12-25T04:59:53Z
2022-12-25T02:56:57Z,42.805,6.029,13.3014,4.60062,2470.53,2022-12-25T05:02:56Z
2022-12-25T03:00:00Z,42.805,6.029,13.3011,4.60063,2470.553,2022-12-25T05:05:59Z
2022-12-25T03:03:03Z,42.805,6.029,13.3006,4.60064,2470.53,2022-12-25T05:09:02Z
2022-12-25T03:06:06Z,42.805,6.029,13.3012,4.60062,2470.52,2022-12-25T05:12:05Z
2022-12-25T03:09:10Z,42.805,6.029,13.3014,4.60061,2470.544,2022-12-25T05:15:08Z
2022-12-25T03:12:13Z,42.805,6.029,13.3017,4.60061,2470.544,2022-12-25T05:18:11Z
2022-12-25T03:15:16Z,42.805,6.029,13.3013,4.60062,2470.567,2022-12-25T05:21:15Z
2022-12-25T03:18:19Z,42.805,6.029,13.3011,4.60062,2470.553,2022-12-25T05:24:18Z
2022-12-25T03:21:22Z,42.805,6.029,13.3011,4.60062,2470.553,2022-12-25T05:27:21Z
2022-12-25T03:24:25Z,42.805,6.029,13.3015,4.60061,2470.52,2022-12-25T05:30:24Z
2022-12-25T03:27:28Z,42.805,6.029,13.3011,4.60063,2470.591,2022-12-25T05:33:27Z
2022-12-25T03:30:31Z,42.805,6.029,13.3014,4.60062,2470.553,2022-12-25T05:36:30Z
2022-12-25T03:33:34Z,42.805,6.029,13.3015,4.60062,2470.553,2022-12-25T05:39:33Z
2022-12-25T03:36:37Z,42.805,6.029,13.3013,4.60061,2470.553,2022-12-25T05:42:36Z
2022-12-25T03:39:40Z,42.805,6.029,13.3012,4.60063,2470.6,2022-12-25T05:45:39Z
2022-12-25T03:42:43Z,42.805,6.029,13.3008,4.60063,2470.544,2022-12-25T05:48:42Z
2022-12-25T03:45:47Z,42.805,6.029,13.3010,4.60062,2470.553,2022-12-25T05:51:45Z
2022-12-25T03:48:50Z,42.805,6.029,13.3014,4.60063,2470.567,2022-12-25T05:54:49Z
2022-12-25T03:51:53Z,42.805,6.029,13.3013,4.60065,2470.567,2022-12-25T05:57:52Z
2022-12-25T03:54:56Z,42.805,6.029,13.3014,4.60062,2470.553,2022-12-25T06:00:55Z
2022-12-25T03:57:59Z,42.805,6.029,13.3015,4.60069,2470.553,2022-12-25T06:03:58Z
2022-12-25T04:01:02Z,42.805,6.029,13.3014,4.60064,2470.6,2022-12-25T06:07:01Z
2022-12-25T04:04:05Z,42.805,6.029,13.3011,4.60067,2470.577,2022-12-25T06:10:04Z
2022-12-25T04:07:08Z,42.805,6.029,13.3013,4.60067,2470.6,2022-12-25T06:13:07Z
2022-12-25T04:10:11Z,42.805,6.029,13.3014,4.60061,2470.553,2022-12-25T06:16:10Z
2022-12-25T04:13:14Z,42.805,6.029,13.3011,4.60064,2470.577,2022-12-25T06:19:13Z
2022-12-25T04:16:17Z,42.805,6.029,13.3011,4.60062,2470.577,2022-12-25T06:22:16Z
2022-12-25T04:19:21Z,42.805,6.029,13.3014,4.60064,2470.577,2022-12-25T06:25:19Z
2022-12-25T04:22:24Z,42.805,6.029,13.3008,4.60068,2470.624,2022-12-25T06:28:23Z
2022-12-25T04:25:27Z,42.805,6.029,13.3009,4.60064,2470.6,2022-12-25T06:31:26Z
2022-12-25T04:28:30Z,42.805,6.029,13.3013,4.60066,2470.6,2022-12-25T06:34:29Z
2022-12-25T04:31:33Z,42.805,6.029,13.3011,4.60064,2470.577,2022-12-25T06:37:32Z
2022-12-25T04:34:36Z,42.805,6.029,13.3016,4.60064,2470.624,2022-12-25T06:40:35Z
2022-12-25T04:37:39Z,42.805,6.029,13.3010,4.60062,2470.6,2022-12-25T06:43:38Z
2022-12-25T04:40:42Z,42.805,6.029,13.3010,4.60064,2470.6,2022-12-25T06:46:41Z
2022-12-25T04:43:45Z,42.805,6.029,13.3012,4.60063,2470.624,2022-12-25T06:49:44Z
2022-12-25T04:46:48Z,42.805,6.029,13.3014,4.60068,2470.646,2022-12-25T06:52:47Z
2022-12-25T04:49:51Z,42.805,6.029,13.3013,4.60063,2470.646,2022-12-25T06:55:50Z
2022-12-25T04:52:54Z,42.805,6.029,13.3014,4.60065,2470.6,2022-12-25T06:58:53Z
2022-12-25T04:55:58Z,42.805,6.029,13.3011,4.60066,2470.624,2022-12-25T07:01:56Z
2022-12-25T04:59:01Z,42.805,6.029,13.3012,4.60064,2470.637,2022-12-25T07:05:00Z
2022-12-25T05:02:04Z,42.805,6.029,13.3011,4.60065,2470.624,2022-12-25T07:08:03Z
2022-12-25T05:05:07Z,42.805,6.029,13.3015,4.60064,2470.661,2022-12-25T07:11:06Z
2022-12-25T05:08:10Z,42.805,6.029,13.3015,4.60067,2470.624,2022-12-25T07:14:09Z
2022-12-25T05:11:13Z,42.805,6.029,13.3012,4.60065,2470.646,2022-12-25T07:17:12Z
2022-12-25T05:14:16Z,42.805,6.029,13.3009,4.60068,2470.646,2022-12-25T07:20:15Z
2022-12-25T05:17:19Z,42.805,6.029,13.3012,4.60064,2470.707,2022-12-25T07:23:18Z
2022-12-25T05:20:22Z,42.805,6.029,13.3013,4.60066,2470.67,2022-12-25T07:26:21Z
2022-12-25T05:23:25Z,42.805,6.029,13.3011,4.60064,2470.693,2022-12-25T07:29:24Z
2022-12-25T05:26:28Z,42.805,6.029,13.3011,4.60066,2470.693,2022-12-25T07:32:27Z
2022-12-25T05:29:31Z,42.805,6.029,13.3010,4.60067,2470.693,2022-12-25T07:35:30Z
2022-12-25T05:32:35Z,42.805,6.029,13.3013,4.60067,2470.67,2022-12-25T07:38:34Z
2022-12-25T05:35:38Z,42.805,6.029,13.3014,4.60067,2470.693,2022-12-25T07:41:37Z
2022-12-25T05:38:41Z,42.805,6.029,13.3011,4.60069,2470.693,2022-12-25T07:44:40Z
2022-12-25T05:41:44Z,42.805,6.029,13.3014,4.60066,2470.693,2022-12-25T07:47:43Z
2022-12-25T05:44:47Z,42.805,6.029,13.3009,4.60066,2470.67,2022-12-25T07:50:46Z
2022-12-25T05:47:50Z,42.805,6.029,13.3015,4.60064,2470.707,2022-12-25T07:53:49Z
2022-12-25T05:50:53Z,42.805,6.029,13.3012,4.60068,2470.717,2022-12-25T07:56:52Z
2022-12-25T05:53:56Z,42.805,6.029,13.3013,4.60067,2470.693,2022-12-25T07:59:55Z
2022-12-25T05:56:59Z,42.805,6.029,13.3009,4.60067,2470.693,2022-12-25T08:02:58Z
2022-12-25T06:00:02Z,42.805,6.029,13.3009,4.60069,2470.74,2022-12-25T08:06:01Z
2022-12-25T06:03:05Z,42.805,6.029,13.3014,4.60068,2470.73,2022-12-25T08:09:04Z
2022-12-25T06:06:08Z,42.805,6.029,13.3015,4.60069,2470.74,2022-12-25T08:12:07Z
2022-12-25T06:09:12Z,42.805,6.029,13.3016,4.60066,2470.74,2022-12-25T08:15:11Z
2022-12-25T06:12:15Z,42.805,6.029,13.3015,4.60065,2470.763,2022-12-25T08:18:14Z
2022-12-25T06:15:18Z,42.805,6.029,13.3011,4.60067,2470.74,2022-12-25T08:21:17Z
2022-12-25T06:18:21Z,42.805,6.029,13.3009,4.60072,2470.74,2022-12-25T08:24:20Z
2022-12-25T06:21:24Z,42.805,6.029,13.3012,4.60066,2470.777,2022-12-25T08:27:23Z
2022-12-25T06:24:27Z,42.805,6.029,13.3011,4.60064,2470.754,2022-12-25T08:30:26Z
2022-12-25T06:27:30Z,42.805,6.029,13.3011,4.60067,2470.777,2022-12-25T08:33:29Z
2022-12-25T06:30:33Z,42.805,6.029,13.3014,4.60067,2470.777,2022-12-25T08:36:32Z
2022-12-25T06:33:36Z,42.805,6.029,13.3013,4.60068,2470.787,2022-12-25T08:39:35Z
2022-12-25T06:36:39Z,42.805,6.029,13.3012,4.60068,2470.763,2022-12-25T08:42:38Z
2022-12-25T06:39:42Z,42.805,6.029,13.3011,4.60069,2470.763,2022-12-25T08:45:41Z
2022-12-25T06:42:46Z,42.805,6.029,13.3015,4.60067,2470.763,2022-12-25T08:48:45Z
2022-12-25T06:45:49Z,42.805,6.029,13.3014,4.60066,2470.763,2022-12-25T08:51:48Z
2022-12-25T06:48:52Z,42.805,6.029,13.3011,4.60067,2470.787,2022-12-25T08:54:51Z
2022-12-25T06:51:55Z,42.805,6.029,13.3011,4.60067,2470.763,2022-12-25T08:57:54Z
2022-12-25T06:54:58Z,42.805,6.029,13.3011,4.60069,2470.81,2022-12-25T09:00:57Z
2022-12-25T06:58:01Z,42.805,6.029,13.3013,4.60069,2470.81,2022-12-25T09:04:00Z
2022-12-25T07:01:04Z,42.805,6.029,13.3011,4.60070,2470.787,2022-12-25T09:07:03Z
2022-12-25T07:04:07Z,42.805,6.029,13.3014,4.60069,2470.81,2022-12-25T09:10:06Z
2022-12-25T07:07:10Z,42.805,6.029,13.3011,4.60069,2470.824,2022-12-25T09:13:09Z
2022-12-25T07:10:13Z,42.805,6.029,13.3014,4.60069,2470.763,2022-12-25T09:16:12Z
2022-12-25T07:13:16Z,42.805,6.029,13.3014,4.60067,2470.787,2022-12-25T09:19:15Z
2022-12-25T07:16:20Z,42.805,6.029,13.3014,4.60066,2470.8,2022-12-25T09:22:19Z
2022-12-25T07:19:23Z,42.805,6.029,13.3011,4.60067,2470.81,2022-12-25T09:25:22Z
2022-12-25T07:22:26Z,42.805,6.029,13.3015,4.60068,2470.833,2022-12-25T09:28:25Z
2022-12-25T07:25:29Z,42.805,6.029,13.3012,4.60065,2470.847,2022-12-25T09:31:28Z
2022-12-25T07:28:32Z,42.805,6.029,13.3015,4.60068,2470.81,2022-12-25T09:34:31Z
2022-12-25T07:31:35Z,42.805,6.029,13.3014,4.60067,2470.871,2022-12-25T09:37:34Z
2022-12-25T07:34:38Z,42.805,6.029,13.3015,4.60069,2470.824,2022-12-25T09:40:37Z
2022-12-25T07:37:41Z,42.805,6.029,13.3014,4.60069,2470.824,2022-12-25T09:43:40Z
2022-12-25T07:40:44Z,42.805,6.029,13.3017,4.60067,2470.847,2022-12-25T09:46:43Z
2022-12-25T07:43:47Z,42.805,6.029,13.3014,4.60066,2470.857,2022-12-25T09:49:46Z
2022-12-25T07:46:50Z,42.805,6.029,13.3011,4.60068,2470.81,2022-12-25T09:52:49Z
2022-12-25T07:49:53Z,42.805,6.029,13.3009,4.60068,2470.871,2022-12-25T09:55:53Z
2022-12-25T07:52:57Z,42.805,6.029,13.3012,4.60068,2470.833,2022-12-25T09:58:56Z
2022-12-25T07:56:00Z,42.805,6.029,13.3013,4.60069,2470.847,2022-12-25T10:01:59Z
2022-12-25T07:59:03Z,42.805,6.029,13.3011,4.60072,2470.833,2022-12-25T10:05:02Z
2022-12-25T08:02:06Z,42.805,6.029,13.3014,4.60069,2470.871,2022-12-25T10:08:05Z
2022-12-25T08:05:09Z,42.805,6.029,13.3013,4.60067,2470.857,2022-12-25T10:11:08Z
2022-12-25T08:08:12Z,42.805,6.029,13.3011,4.60067,2470.857,2022-12-25T10:14:11Z
2022-12-25T08:11:15Z,42.805,6.029,13.3010,4.60066,2470.871,2022-12-25T10:17:14Z
2022-12-25T08:14:18Z,42.805,6.029,13.3011,4.60067,2470.833,2022-12-25T10:20:17Z
2022-12-25T08:17:21Z,42.805,6.029,13.3015,4.60067,2470.871,2022-12-25T10:23:20Z
2022-12-25T08:20:24Z,42.805,6.029,13.3010,4.60072,2470.857,2022-12-25T10:26:23Z
2022-12-25T08:23:27Z,42.805,6.029,13.3012,4.60068,2470.88,2022-12-25T10:29:27Z
2022-12-25T08:26:31Z,42.805,6.029,13.3016,4.60070,2470.857,2022-12-25T10:32:30Z
2022-12-25T08:29:34Z,42.805,6.029,13.3013,4.60070,2470.857,2022-12-25T10:35:33Z
2022-12-25T08:32:37Z,42.805,6.029,13.3011,4.60070,2470.88,2022-12-25T10:38:36Z
2022-12-25T08:35:40Z,42.805,6.029,13.3013,4.60068,2470.833,2022-12-25T10:41:39Z
2022-12-25T08:38:43Z,42.805,6.029,13.3013,4.60069,2470.88,2022-12-25T10:44:42Z
2022-12-25T08:41:46Z,42.805,6.029,13.3016,4.60069,2470.857,2022-12-25T10:47:45Z
2022-12-25T08:44:49Z,42.805,6.029,13.3015,4.60069,2470.871,2022-12-25T10:50:48Z
2022-12-25T08:47:52Z,42.805,6.029,13.3013,4.60072,2470.88,2022-12-25T10:53:51Z
2022-12-25T08:50:55Z,42.805,6.029,13.3011,4.60069,2470.88,2022-12-25T10:56:54Z
2022-12-25T08:53:58Z,42.805,6.029,13.3014,4.60069,2470.857,2022-12-25T10:59:57Z
2022-12-25T08:57:01Z,42.805,6.029,13.3013,4.60069,2470.871,2022-12-25T11:03:01Z
2022-12-25T09:00:05Z,42.805,6.029,13.3011,4.60068,2470.894,2022-12-25T11:06:04Z
2022-12-25T09:03:08Z,42.805,6.029,13.3014,4.60067,2470.894,2022-12-25T11:09:07Z
2022-12-25T09:06:11Z,42.805,6.029,13.3012,4.60069,2470.871,2022-12-25T11:12:10Z
2022-12-25T09:09:14Z,42.805,6.029,13.3013,4.60069,2470.88,2022-12-25T11:15:13Z
2022-12-25T09:12:17Z,42.805,6.029,13.3015,4.60067,2470.857,2022-12-25T11:18:16Z
2022-12-25T09:15:20Z,42.805,6.029,13.3010,4.60068,2470.857,2022-12-25T11:21:19Z
2022-12-25T09:18:23Z,42.805,6.029,13.3009,4.60068,2470.88,2022-12-25T11:24:22Z
2022-12-25T09:21:26Z,42.805,6.029,13.3015,4.60069,2470.88,2022-12-25T11:27:25Z
2022-12-25T09:24:29Z,42.805,6.029,13.3014,4.60067,2470.857,2022-12-25T11:30:28Z
2022-12-25T09:27:32Z,42.805,6.029,13.3011,4.60069,2470.88,2022-12-25T11:33:31Z
2022-12-25T09:30:35Z,42.805,6.029,13.3012,4.60071,2470.871,2022-12-25T11:36:35Z
2022-12-25T09:33:39Z,42.805,6.029,13.3014,4.60068,2470.894,2022-12-25T11:39:38Z
2022-12-25T09:36:42Z,42.805,6.029,13.3015,4.60068,2470.857,2022-12-25T11:42:41Z
2022-12-25T09:39:45Z,42.805,6.029,13.3015,4.60069,2470.833,2022-12-25T11:45:44Z
2022-12-25T09:42:48Z,42.805,6.029,13.3012,4.60067,2470.857,2022-12-25T11:48:47Z
2022-12-25T09:45:51Z,42.805,6.029,13.3012,4.60066,2470.857,2022-12-25T11:51:50Z
2022-12-25T09:48:54Z,42.805,6.029,13.3014,4.60069,2470.857,2022-12-25T11:54:53Z
2022-12-25T09:51:57Z,42.805,6.029,13.3013,4.60067,2470.833,2022-12-25T11:57:56Z
2022-12-25T09:55:00Z,42.805,6.029,13.3011,4.60069,2470.833,2022-12-25T12:00:59Z
2022-12-25T09:58:03Z,42.805,6.029,13.3012,4.60069,2470.871,2022-12-25T12:04:02Z
2022-12-25T10:01:06Z,42.805,6.029,13.3008,4.60068,2470.894,2022-12-25T12:07:05Z
2022-12-25T10:04:09Z,42.805,6.029,13.3013,4.60067,2470.894,2022-12-25T12:10:09Z
2022-12-25T10:07:13Z,42.805,6.029,13.3015,4.60069,2470.88,2022-12-25T12:13:12Z
2022-12-25T10:10:16Z,42.805,6.029,13.3013,4.60068,2470.847,2022-12-25T12:16:15Z
2022-12-25T10:13:19Z,42.805,6.029,13.3010,4.60068,2470.847,2022-12-25T12:19:18Z
2022-12-25T10:16:22Z,42.805,6.029,13.3011,4.60068,2470.871,2022-12-25T12:22:21Z
2022-12-25T10:19:25Z,42.805,6.029,13.3014,4.60068,2470.857,2022-12-25T12:25:24Z
2022-12-25T10:22:28Z,42.805,6.029,13.3012,4.60067,2470.833,2022-12-25T12:28:27Z
2022-12-25T10:25:31Z,42.805,6.029,13.3014,4.60068,2470.847,2022-12-25T12:31:30Z
2022-12-25T10:28:34Z,42.805,6.029,13.3015,4.60068,2470.81,2022-12-25T12:34:33Z
2022-12-25T10:31:37Z,42.805,6.029,13.3011,4.60067,2470.857,2022-12-25T12:37:36Z
2022-12-25T10:34:40Z,42.805,6.029,13.3014,4.60067,2470.871,2022-12-25T12:40:39Z
2022-12-25T10:37:43Z,42.805,6.029,13.3014,4.60068,2470.787,2022-12-25T12:43:43Z
2022-12-25T10:40:47Z,42.805,6.029,13.3021,4.60067,2470.81,2022-12-25T12:46:46Z
2022-12-25T10:43:50Z,42.805,6.029,13.3016,4.60067,2470.81,2022-12-25T12:49:49Z
2022-12-25T10:46:53Z,42.805,6.029,13.3013,4.60068,2470.824,2022-12-25T12:52:52Z
2022-12-25T10:49:56Z,42.805,6.029,13.3013,4.60067,2470.847,2022-12-25T12:55:55Z
2022-12-25T10:52:59Z,42.805,6.029,13.3014,4.60067,2470.81,2022-12-25T12:58:58Z
2022-12-25T10:56:02Z,42.805,6.029,13.3014,4.60068,2470.833,2022-12-25T13:02:01Z
2022-12-25T10:59:05Z,42.805,6.029,13.3014,4.60067,2470.814,2022-12-25T13:05:04Z
2022-12-25T11:02:08Z,42.805,6.029,13.3013,4.60068,2470.824,2022-12-25T13:08:07Z
2022-12-25T11:05:11Z,42.805,6.029,13.3013,4.60068,2470.81,2022-12-25T13:11:10Z
2022-12-25T11:08:14Z,42.805,6.029,13.3011,4.60066,2470.824,2022-12-25T13:14:14Z
2022-12-25T11:11:17Z,42.805,6.029,13.3013,4.60066,2470.81,2022-12-25T13:17:17Z
2022-12-25T11:14:21Z,42.805,6.029,13.3012,4.60067,2470.787,2022-12-25T13:20:20Z
2022-12-25T11:17:24Z,42.805,6.029,13.3011,4.60067,2470.763,2022-12-25T13:23:23Z
2022-12-25T11:20:27Z,42.805,6.029,13.3013,4.60066,2470.833,2022-12-25T13:26:26Z
2022-12-25T11:23:30Z,42.805,6.029,13.3015,4.60067,2470.824,2022-12-25T13:29:29Z
2022-12-25T11:26:33Z,42.805,6.029,13.3014,4.60066,2470.787,2022-12-25T13:32:32Z
2022-12-25T11:29:36Z,42.805,6.029,13.3011,4.60067,2470.81,2022-12-25T13:35:35Z
2022-12-25T11:32:39Z,42.805,6.029,13.3015,4.60067,2470.763,2022-12-25T13:38:38Z
2022-12-25T11:35:42Z,42.805,6.029,13.3010,4.60064,2470.81,2022-12-25T13:41:41Z
2022-12-25T11:38:45Z,42.805,6.029,13.3011,4.60065,2470.824,2022-12-25T13:44:44Z
2022-12-25T11:41:48Z,42.805,6.029,13.3012,4.60067,2470.777,2022-12-25T13:47:48Z
2022-12-25T11:44:51Z,42.805,6.029,13.3011,4.60068,2470.777,2022-12-25T13:50:51Z
2022-12-25T11:47:55Z,42.805,6.029,13.3014,4.60066,2470.787,2022-12-25T13:53:54Z
2022-12-25T11:50:58Z,42.805,6.029,13.3011,4.60067,2470.763,2022-12-25T13:56:57Z
2022-12-25T11:54:01Z,42.805,6.029,13.3013,4.60067,2470.81,2022-12-25T14:00:00Z
2022-12-25T11:57:04Z,42.805,6.029,13.3015,4.60067,2470.763,2022-12-25T14:03:03Z
2022-12-25T12:00:07Z,42.805,6.029,13.3012,4.60067,2470.8,2022-12-25T14:06:06Z
2022-12-25T12:03:10Z,42.805,6.029,13.3012,4.60067,2470.763,2022-12-25T14:09:09Z
2022-12-25T12:06:13Z,42.805,6.029,13.3011,4.60067,2470.763,2022-12-25T14:12:12Z
2022-12-25T12:09:16Z,42.805,6.029,13.3014,4.60066,2470.8,2022-12-25T14:15:15Z
2022-12-25T12:12:19Z,42.805,6.029,13.3014,4.60064,2470.787,2022-12-25T14:18:18Z
2022-12-25T12:15:22Z,42.805,6.029,13.3013,4.60064,2470.777,2022-12-25T14:21:22Z
2022-12-25T12:18:25Z,42.805,6.029,13.3014,4.60067,2470.74,2022-12-25T14:24:25Z
2022-12-25T12:21:29Z,42.805,6.029,13.3010,4.60065,2470.763,2022-12-25T14:27:28Z
2022-12-25T12:24:32Z,42.805,6.029,13.3010,4.60067,2470.763,2022-12-25T14:30:31Z
2022-12-25T12:27:35Z,42.805,6.029,13.3011,4.60066,2470.754,2022-12-25T14:33:34Z
2022-12-25T12:30:38Z,42.805,6.029,13.3013,4.60064,2470.763,2022-12-25T14:36:37Z
2022-12-25T12:33:41Z,42.805,6.029,13.3014,4.60066,2470.754,2022-12-25T14:39:40Z
2022-12-25T12:36:44Z,42.805,6.029,13.3014,4.60065,2470.717,2022-12-25T14:42:43Z
2022-12-25T12:39:47Z,42.805,6.029,13.3015,4.60064,2470.763,2022-12-25T14:45:46Z
2022-12-25T12:42:50Z,42.805,6.029,13.3014,4.60064,2470.777,2022-12-25T14:48:49Z
2022-12-25T12:45:53Z,42.805,6.029,13.3015,4.60065,2470.74,2022-12-25T14:51:53Z
2022-12-25T12:48:56Z,42.805,6.029,13.3014,4.60064,2470.73,2022-12-25T14:54:56Z
2022-12-25T12:51:59Z,42.805,6.029,13.3015,4.60066,2470.717,2022-12-25T14:57:59Z
2022-12-25T12:55:03Z,42.805,6.029,13.3015,4.60066,2470.74,2022-12-25T15:01:02Z
2022-12-25T12:58:06Z,42.805,6.029,13.3014,4.60065,2470.693,2022-12-25T15:04:05Z
2022-12-25T13:01:09Z,42.805,6.029,13.3012,4.60067,2470.717,2022-12-25T15:07:08Z
2022-12-25T13:04:12Z,42.805,6.029,13.3014,4.60067,2470.693,2022-12-25T15:10:11Z
2022-12-25T13:07:15Z,42.805,6.029,13.3013,4.60064,2470.717,2022-12-25T15:13:14Z
2022-12-25T13:10:18Z,42.805,6.029,13.3012,4.60064,2470.717,2022-12-25T15:16:17Z
2022-12-25T13:13:21Z,42.805,6.029,13.3014,4.60064,2470.693,2022-12-25T15:19:20Z
2022-12-25T13:16:24Z,42.805,6.029,13.3013,4.60066,2470.67,2022-12-25T15:22:23Z
2022-12-25T13:19:27Z,42.805,6.029,13.3014,4.60066,2470.693,2022-12-25T15:25:27Z
2022-12-25T13:22:30Z,42.805,6.029,13.3012,4.60064,2470.693,2022-12-25T15:28:30Z
2022-12-25T13:25:33Z,42.805,6.029,13.3015,4.60066,2470.693,2022-12-25T15:31:33Z
2022-12-25T13:28:37Z,42.805,6.029,13.3015,4.60065,2470.717,2022-12-25T15:34:36Z
2022-12-25T13:31:40Z,42.805,6.029,13.3011,4.60066,2470.646,2022-12-25T15:37:39Z
2022-12-25T13:34:43Z,42.805,6.029,13.3014,4.60064,2470.754,2022-12-25T15:40:42Z
2022-12-25T13:37:46Z,42.805,6.029,13.3011,4.60066,2470.707,2022-12-25T15:43:45Z
2022-12-25T13:40:49Z,42.805,6.029,13.3011,4.60065,2470.67,2022-12-25T15:46:48Z
2022-12-25T13:43:52Z,42.805,6.029,13.3015,4.60065,2470.693,2022-12-25T15:49:51Z
2022-12-25T13:46:55Z,42.805,6.029,13.3011,4.60066,2470.693,2022-12-25T15:52:54Z
2022-12-25T13:49:58Z,42.805,6.029,13.3014,4.60065,2470.646,2022-12-25T15:55:57Z
2022-12-25T13:53:01Z,42.805,6.029,13.3015,4.60064,2470.661,2022-12-25T15:59:01Z
2022-12-25T13:56:04Z,42.805,6.029,13.3012,4.60065,2470.684,2022-12-25T16:02:04Z
2022-12-25T13:59:07Z,42.805,6.029,13.3014,4.60066,2470.67,2022-12-25T16:05:07Z
2022-12-25T14:02:11Z,42.805,6.029,13.3011,4.60064,2470.684,2022-12-25T16:08:10Z
2022-12-25T14:05:14Z,42.805,6.029,13.3015,4.60064,2470.684,2022-12-25T16:11:13Z
2022-12-25T14:08:17Z,42.805,6.029,13.3013,4.60064,2470.67,2022-12-25T16:14:16Z
2022-12-25T14:11:20Z,42.805,6.029,13.3013,4.60064,2470.67,2022-12-25T16:17:19Z
2022-12-25T14:14:23Z,42.805,6.029,13.3010,4.60064,2470.661,2022-12-25T16:20:22Z
2022-12-25T14:17:26Z,42.805,6.029,13.3016,4.60064,2470.661,2022-12-25T16:23:25Z
2022-12-25T14:20:29Z,42.805,6.029,13.3014,4.60064,2470.684,2022-12-25T16:26:28Z
2022-12-25T14:23:32Z,42.805,6.029,13.3012,4.60064,2470.646,2022-12-25T16:29:31Z
2022-12-25T14:26:35Z,42.805,6.029,13.3011,4.60064,2470.684,2022-12-25T16:32:35Z
2022-12-25T14:29:38Z,42.805,6.029,13.3012,4.60064,2470.67,2022-12-25T16:35:38Z
2022-12-25T14:32:41Z,42.805,6.029,13.3013,4.60064,2470.646,2022-12-25T16:38:41Z
2022-12-25T14:35:45Z,42.805,6.029,13.3014,4.60064,2470.646,2022-12-25T16:41:44Z
2022-12-25T14:38:48Z,42.805,6.029,13.3014,4.60066,2470.684,2022-12-25T16:44:47Z
2022-12-25T14:41:51Z,42.805,6.029,13.3015,4.60064,2470.661,2022-12-25T16:47:50Z
2022-12-25T14:44:54Z,42.805,6.029,13.3014,4.60063,2470.661,2022-12-25T16:50:53Z
2022-12-25T14:47:57Z,42.805,6.029,13.3014,4.60064,2470.684,2022-12-25T16:53:56Z
2022-12-25T14:51:00Z,42.805,6.029,13.3013,4.60063,2470.656,2022-12-25T16:56:59Z
2022-12-25T14:54:03Z,42.805,6.029,13.3015,4.60066,2470.624,2022-12-25T17:00:02Z
2022-12-25T14:57:06Z,42.805,6.029,13.3011,4.60063,2470.624,2022-12-25T17:03:06Z
2022-12-25T15:00:09Z,42.805,6.029,13.3010,4.60064,2470.646,2022-12-25T17:06:09Z
2022-12-25T15:03:12Z,42.805,6.029,13.3014,4.60064,2470.646,2022-12-25T17:09:12Z